Simultaneous Nadir Overpasses (SNOs) Predictions

Prediction of SNOs between GOES-16 and METOP-B Satellite Orbit:

Table of predicted SNOs for the next 14.0 days since TLE Epoch: 11/16/2018
Index Date Time (GOES-16) GOES-16 Lat,Lon METOP-B Lat,Lon Distance(km) Time Diff (sec)
1 11/17/2018 02:13:34 0.02, -75.23 0.77, -71.89 381.08 80
2 11/18/2018 14:32:28 -0.02, -75.23 0.26, -76.44 137.91 80
3 11/19/2018 14:14:29 -0.01, -75.24 -0.84, -71.45 431.71 80
4 11/21/2018 02:33:31 0.01, -75.25 -0.15, -76.05 90.95 80
5 11/22/2018 02:10:13 0.01, -75.26 0.95, -71.06 478.79 80
6 11/23/2018 14:29:06 -0.01, -75.27 0.07, -75.61 39.62 80
7 11/26/2018 02:27:30 -0.00, -75.29 0.04, -75.22 8.43 80
8 11/28/2018 14:28:25 0.01, -75.31 -0.12, -74.79 59.89 80
9 11/30/2018 02:47:26 -0.01, -75.33 -0.94, -79.37 461.53 80




NCC Satellite Simultaneous Nadir Overpasses (SNOs) Prediction Service
